Location: Sungai Igah
(2.7333°N, 114.2500°E)
Time: 22:32:11
(UTC+00:00)

Cosmos 44 - Pass Details

Date: 14 June 2021
Orbit: 572 x 790 km, 65.1° (Epoch: 25 July)

Event Time Altitude Azimuth Distance (km) Brightness Sun altitude
Exits shadow 20:13:16 54° 8° (N) 856 3.8 -28.3°
Drops below altitude 10° 20:17:14 10° 19° (NNE) 2,223 6.4 -27.5°
Sets 20:19:40 0° 20° (NNE) 3,175 7.4 -26.9°
